SCP
0 0 0 0 0 0 0 0 0 0 0 0 0 0 0 0 0 0 0 0 0 0 0 0 0 0 0 0 0 0 0 0 0 0 0 0 0 0 0 0 0 0 0
0 0 0 0 0 0 0 0 0 0 0 0 0 0 0 0 0 0 0 0 0 0 0 0 0 0 0 0 0 0 0 0 0 0 0 0 0 0 0 0 0 0 0
0 0 0 0 0 0 0 0 0 0 0 0 0 0 0 0 0 0 0 0 0 0 0 0 0 0 0 0 0 0 0 0 0 0 0 0 0 0 0 0 0 0 0
0 0 0 0 0 0 0 0 0 0 0 0 0 0 0 0 0 0 0 0 0 0 0 0 0 0 0 0 0 0 0 0 0 0 0 0 0 0 0 0 0 0 0
0 0 0 0 0 0 0 0 0 0 0 0 0 0 0 0 0 0 0 0 0 0 0 0 0 0 0 0 0 0 0 0 0 0 0 0 0 0 0 0 0 0 0
0 0 0 0 0 0 0 0 0 0 0 0 0 0 0 0 0 0 0 0 0 0 0 0 0 0 0 0 0 0 0 0 0 0 0 0 0 1 0 0 0 0 0
0 0 0 0 0 0 0 0 0 0 0 0 0 0 0 0 0 0 0 0 0 0 0 0 0 0 0 0 0 0 0 0 0 0 0 0 0 0 0 0 0 0 0
0 0 0 0 0 0 0 0 0 0 0 0 0 0 0 0 0 0 0 0 0 0 0 0 0 0 0 0 0 0 0 0 0 0 0 0 0 0 0 0 0 0 0
0 0 0 0 0 0 0 0 0 0 0 0 0 0 0 0 0 0 0 0 0 0 0 0 0 0 0 0 0 0 0 0 0 0 0 0 0 0 0 0 0 0 0
0 0 0 0 0 0 0 0 0 0 0 0 0 0 0 0 0 0 0 0 0 0 0 0 0 0 0 0 0 0 0 0 0 0 0 0 0 0 0 0 0 0 0
0 0 0 0 0 0 0 0 0 0 0 0 0 0 0 0 0 0 0 0 0 0 0 0 0 0 0 0 0 0 0 0 0 0 0 0 0 0 0 0 0 0 0
0 0 0 0 0 0 0 0 0 0 0 0 0 0 0 0 0 0 0 0 0 -0 -0 -0 0 0 0 0 0 0 0 0 0 0 0 0 0 -0 -0 0 0 0 0
0 0 0 0 0 0 0 0 0 0 0 0 0 0 0 0 0 0 0 0 0 0 0 0 0 0 0 0 0 0 0 0 0 0 0 0 0 0 -0 0 0 0 0
0 0 0 0 0 0 0 0 0 0 0 0 0 0 0 0 0 0 0 0 0 0 0 0 0 0 -0 0 0 0 0 0 0 0 0 0 0 0 0 0 0 0 0
0 0 0 0 0 0 0 0 0 0 0 0 0 -0 -0 -0 0 0 0 0 0 0 0 0 0 0 0 -0 0 0 0 0 0 0 0 0 0 0 0 0 0 0 0
0 0 0 0 0 0 0 0 0 0 -0 -0 -0 0 0 0 0 0 0 0 0 0 0 0 0 0 0 0 0 0 0 0 0 0 0 0 0 0 0 0 0 0 -0
0 0 0 0 0 0 0 0 0 0 0 0 0 0 0 0 0 0 0 0 0 0 0 0 0 0 0 0 0 0 0 0 0 0 0 0 0 0 0 0 0 0 -0
0 0 0 0 0 0 0 0 0 0 0 0 0 0 0 0 0 0 0 0 0 0 0 0 0 0 0 0 0 0 0 0 0 0 0 0 0 0 0 0 0 0 0
0 0 0 0 0 0 0 0 0 0 0 0 0 0 0 0 0 0 0 0 0 0 0 0 0 0 0 0 0 0 0 0 0 0 0 0 0 0 0 0 0 0 0
0 0 0 0 0 0 0 0 0 0 0 0 0 0 0 0 0 0 0 0 0 0 0 0 0 0 0 0 0 0 0 0 0 0 0 0 0 0 0 0 0 0 0
0 0 -0 0 0 0 0 0 0 0 0 0 0 0 0 0 0 0 0 0 0 0 0 0 0 0 0 0 0 0 0 0 0 0 0 0 0 0 0 0 0 0 0
0 0 0 0 0 0 0 0 0 0 0 0 0 0 0 0 0 0 0 0 0 0 0 0 0 0 0 0 0 0 0 0 0 0 0 0 0 0 0 0 0 0 0
0 0 0 0 0 0 0 0 0 0 0 0 0 0 0 0 0 0 0 0 0 0 0 0 0 0 0 0 0 0 0 0 0 0 0 0 0 0 0 0 0 0 0
0 0 0 0 0 0 0 0 0 0 0 0 0 0 0 0 0 0 0 0 0 0 0 0 0 0 0 0 0 0 0 0 0 0 0 0 0 0 0 0 0 0 0
0 0 0 0 0 0 0 0 0 0 0 0 0 0 0 0 0 0 0 0 0 0 0 0 0 0 0 0 0 0 0 0 0 0 0 0 0 0 0 0 0 0 0
0 0 0 0 0 0 0 0 0 0 0 0 0 0 0 -0 -0 0 0 0 0 0 0 0 0 0 0 0 0 0 0 0 0 0 0 0 0 0 0 0 0 0 0
Wind_Speed_500mb
31 34 34 36 37 35 34 34 36 37 36 35 35 35 35 31 30 32 31 27 30 32 34 35 37 44 48 51 43 38 38 43 45 47 52 55 49 48 48 52 52 54 57
36 37 39 41 40 39 39 40 39 39 37 36 36 36 34 34 30 26 27 28 26 31 33 35 40 43 51 55 55 58 57 48 45 50 56 60 60 58 54 57 62 62 62
36 37 39 40 40 42 44 43 42 40 39 37 34 33 32 31 31 33 31 28 30 27 31 35 36 41 43 45 53 60 63 62 60 59 57 61 63 63 61 62 66 70 67
35 37 38 39 38 40 44 44 43 42 39 36 33 31 31 29 30 30 32 34 31 33 30 26 28 32 39 42 45 50 55 66 63 59 65 66 65 67 69 71 71 75 77
39 40 41 40 41 41 41 42 43 44 43 41 39 37 35 31 29 30 32 33 34 34 34 34 30 28 30 35 42 48 50 52 57 65 64 61 71 66 78 82 81 80 82
47 49 50 48 47 48 46 47 47 45 44 44 46 47 45 41 37 33 31 31 27 30 34 38 39 37 32 32 33 35 41 49 55 55 71 65 57 54 96 92 92 89 87
57 61 62 60 59 60 57 54 54 54 54 52 51 55 57 55 52 46 37 39 34 38 45 45 40 41 42 36 31 31 36 39 46 49 58 62 84 72 68 94 117 101 98
59 65 72 75 75 74 72 68 68 69 64 61 62 61 59 57 62 52 47 43 49 49 46 52 52 49 46 46 42 37 36 40 44 51 54 61 68 69 84 74 83 110 103
69 72 76 81 86 86 86 84 82 82 78 71 71 59 26 35 45 45 47 54 60 58 59 59 57 55 48 46 45 45 44 40 45 49 53 56 66 75 57 50 55 95 96
71 73 75 76 81 92 98 96 94 87 82 78 75 71 70 70 47 47 54 47 48 62 65 64 57 54 53 48 45 44 47 51 50 50 52 62 60 59 75 85 74 65 91
60 58 61 61 64 73 91 104 99 87 83 79 73 68 62 54 45 37 40 48 52 56 65 69 65 61 55 53 49 46 44 44 52 54 55 56 67 69 55 79 69 70 80
72 72 69 70 70 68 77 81 82 78 73 70 65 58 50 36 24 27 37 56 61 77 79 74 66 61 58 54 49 46 43 48 51 47 51 53 51 56 66 56 52 39 43
69 71 67 62 61 59 57 53 54 52 46 46 45 41 41 40 41 40 43 51 58 66 73 76 66 63 59 53 48 44 43 41 44 48 40 30 30 32 36 52 67 52 37
67 63 57 47 43 41 39 32 30 32 32 34 32 38 36 35 30 30 35 47 60 62 62 71 72 67 60 56 50 44 50 54 45 44 40 29 25 21 24 29 54 82 46
62 56 45 30 28 27 26 27 30 45 31 24 27 31 28 26 28 33 40 46 48 58 67 63 69 66 60 58 56 55 54 52 52 48 51 43 38 33 31 35 31 47 66
53 40 29 25 22 29 38 49 49 28 31 28 28 29 33 38 43 47 52 56 56 58 71 67 67 72 67 62 58 58 61 60 61 58 54 56 53 44 34 33 42 30 38
29 17 16 27 40 44 21 16 21 24 28 35 41 45 49 52 56 56 58 58 59 57 66 76 69 66 69 66 63 63 61 59 57 55 54 54 57 54 46 39 30 42 30
16 19 26 20 18 21 22 27 32 37 43 46 51 56 59 60 64 62 60 61 62 61 61 72 72 68 72 71 66 64 67 64 65 65 63 61 58 59 58 53 48 37 46
30 32 37 28 28 32 31 38 42 46 51 56 61 64 63 61 63 62 63 69 73 76 79 82 87 80 77 81 81 80 80 80 77 72 70 69 67 66 65 65 60 55 47
25 29 33 33 34 33 40 45 51 57 61 63 62 63 66 68 72 74 75 75 74 72 70 68 72 74 64 65 66 67 72 72 74 67 67 67 66 66 67 67 67 67 62
32 24 30 35 41 48 53 58 60 60 62 66 67 69 70 69 69 69 65 66 64 64 62 61 65 68 63 59 61 61 64 63 67 64 65 65 64 65 66 66 66 66 61
36 36 36 39 48 55 58 57 59 61 63 66 71 71 68 66 62 56 53 52 56 59 64 65 70 71 68 63 60 58 60 58 69 58 55 60 55 61 57 59 65 68 66
36 38 44 51 55 56 56 57 60 63 65 63 63 62 60 57 55 53 53 52 52 53 56 62 71 75 77 72 70 65 66 64 65 60 57 62 46 47 47 50 50 60 69
46 50 51 52 55 55 58 62 59 57 56 57 58 57 54 52 50 48 50 57 58 59 61 61 67 69 68 66 69 71 63 64 64 62 54 66 58 61 60 62 51 49 58
45 49 50 50 55 60 57 54 53 55 58 58 55 46 47 47 47 48 52 57 59 61 55 55 60 60 60 59 57 57 61 63 64 68 57 58 58 54 49 48 61 55 50
48 47 49 53 54 54 55 50 49 58 54 52 51 52 45 45 48 51 55 60 65 59 54 68 65 57 52 50 53 57 63 68 62 48 58 55 49 39 40 40 39 58 46
Wind_Direction_500mb
297 293 289 290 290 288 290 291 292 291 290 291 292 295 297 296 295 297 299 300 297 289 282 277 271 269 268 263 264 262 259 252 251 242 244 248 250 254 248 240 232 229 227
295 292 290 290 289 288 289 290 292 291 291 291 292 292 293 298 303 301 301 303 296 298 300 289 281 277 269 272 266 265 266 262 256 251 249 250 251 253 249 239 234 232 232
296 295 297 296 294 293 291 291 291 290 289 289 290 291 291 290 295 302 305 301 300 296 296 298 291 281 278 274 272 268 263 264 262 261 258 257 252 250 248 243 237 235 233
295 294 298 297 292 292 290 288 289 289 286 284 284 285 288 293 296 299 302 305 300 293 295 296 298 293 283 280 275 270 270 265 262 261 263 259 257 253 248 245 239 236 236
302 295 297 295 290 289 286 280 279 280 280 281 281 280 281 283 289 293 296 298 297 298 295 294 297 295 293 289 280 277 270 265 264 262 261 265 259 251 254 245 241 235 235
305 299 297 295 287 282 283 277 279 277 274 275 276 277 278 277 279 283 282 285 292 297 303 300 291 290 291 288 289 282 278 272 264 267 258 255 263 259 246 250 244 238 235
305 299 295 290 285 280 283 282 277 274 274 274 269 275 276 275 272 273 262 284 289 301 307 303 295 293 293 284 279 285 280 283 275 270 262 264 254 256 272 249 239 238 238
306 303 299 294 287 280 276 273 270 269 269 268 265 269 272 274 271 268 269 272 283 295 308 308 299 293 292 291 281 273 274 273 276 278 278 268 262 261 260 268 254 252 240
298 295 291 286 279 277 275 271 269 266 264 264 258 252 248 251 264 256 256 270 278 284 296 306 303 297 292 290 287 276 269 273 275 275 279 276 268 258 263 264 267 237 234
296 291 288 286 279 272 270 271 268 261 258 253 251 244 245 252 248 260 266 262 268 277 286 299 300 298 296 293 288 284 276 271 273 276 280 280 273 269 259 260 269 269 247
301 296 295 295 288 277 271 266 263 252 247 244 240 242 233 236 239 247 265 269 268 277 287 295 297 295 296 296 292 286 280 276 274 273 277 280 283 274 271 250 251 266 263
306 301 298 294 289 279 271 268 261 243 237 234 230 224 224 239 232 256 278 286 291 285 291 295 297 296 296 296 294 290 286 277 273 278 274 276 280 287 279 260 242 238 267
304 303 302 298 291 277 260 240 228 218 211 215 220 238 237 261 272 281 289 298 295 292 289 292 297 298 299 297 295 291 284 282 278 271 274 266 260 286 286 267 254 244 238
310 309 309 302 282 245 217 208 214 226 237 278 282 278 278 280 289 295 292 290 292 291 292 289 293 296 297 295 291 279 277 280 275 269 258 247 242 254 264 268 264 251 273
307 306 297 269 228 222 234 240 280 313 315 311 315 315 301 290 283 282 280 278 282 288 290 290 290 294 295 294 291 288 284 279 279 272 258 247 247 257 255 249 255 262 258
300 287 261 247 259 285 288 294 310 327 320 319 310 298 293 293 291 287 284 283 281 279 280 282 285 288 290 290 289 285 283 280 277 275 271 260 257 255 253 253 251 256 269
278 262 281 297 291 293 306 320 313 302 291 292 294 294 294 295 292 291 289 287 283 280 278 283 285 288 288 288 285 284 284 280 276 271 268 265 262 258 252 240 244 244 247
256 292 286 314 321 314 313 309 302 297 297 298 299 298 297 295 292 292 290 288 285 283 281 284 286 285 284 285 283 281 281 280 276 270 267 263 259 257 252 250 245 243 243
252 276 295 298 304 306 302 300 301 299 299 300 300 298 296 294 291 290 287 284 283 282 281 281 282 282 280 281 281 281 280 280 278 275 271 267 262 258 253 251 246 241 247
263 302 331 323 302 295 299 302 305 304 304 303 301 298 295 293 292 291 290 287 287 285 285 281 280 280 278 279 278 277 279 280 280 278 272 268 263 257 253 249 245 239 238
347 318 304 296 296 297 302 306 305 303 300 298 295 293 293 294 294 294 291 290 289 288 284 278 276 278 274 271 268 274 274 278 277 275 274 268 262 254 249 246 241 233 227
308 305 297 295 299 300 302 304 305 304 304 302 301 300 301 300 298 295 289 283 277 275 275 274 275 271 271 267 267 268 271 275 277 278 276 271 267 260 251 247 240 235 228
304 302 301 303 307 310 310 311 310 307 304 302 303 304 305 305 304 302 299 294 286 279 271 267 266 266 269 269 269 270 270 269 270 277 274 272 265 256 246 244 243 237 231
305 307 310 311 310 312 315 313 313 309 308 306 306 306 305 306 306 307 301 296 293 287 284 281 278 280 278 276 267 265 270 271 271 269 267 265 264 262 258 252 242 236 229
314 314 315 317 315 318 319 320 316 314 311 310 309 311 311 311 312 316 307 300 294 289 291 287 285 283 279 274 266 264 258 257 257 264 265 264 266 271 273 263 247 238 224
317 318 318 317 320 322 324 321 318 317 318 318 317 318 318 315 314 313 306 299 295 296 289 287 284 284 278 267 260 253 255 254 253 256 262 261 268 268 277 278 263 234 228
Wind_Speed_850mb
31 34 34 36 37 35 34 34 36 37 36 35 35 35 35 31 30 32 31 27 30 32 34 35 37 44 48 51 43 38 38 43 45 47 52 55 49 48 48 52 52 54 57
36 37 39 41 40 39 39 40 39 39 37 36 36 36 34 34 30 26 27 28 26 31 33 35 40 43 51 55 55 58 57 48 45 50 56 60 60 58 54 57 62 62 62
36 37 39 40 40 42 44 43 42 40 39 37 34 33 32 31 31 33 31 28 30 27 31 35 36 41 43 45 53 60 63 62 60 59 57 61 63 63 61 62 66 70 67
35 37 38 39 38 40 44 44 43 42 39 36 33 31 31 29 30 30 32 34 31 33 30 26 28 32 39 42 45 50 55 66 63 59 65 66 65 67 69 71 71 75 77
39 40 41 40 41 41 41 42 43 44 43 41 39 37 35 31 29 30 32 33 34 34 34 34 30 28 30 35 42 48 50 52 57 65 64 61 71 66 78 82 81 80 82
47 49 50 48 47 48 46 47 47 45 44 44 46 47 45 41 37 33 31 31 27 30 34 38 39 37 32 32 33 35 41 49 55 55 71 65 57 54 96 92 92 89 87
57 61 62 60 59 60 57 54 54 54 54 52 51 55 57 55 52 46 37 39 34 38 45 45 40 41 42 36 31 31 36 39 46 49 58 62 84 72 68 94 117 101 98
59 65 72 75 75 74 72 68 68 69 64 61 62 61 59 57 62 52 47 43 49 49 46 52 52 49 46 46 42 37 36 40 44 51 54 61 68 69 84 74 83 110 103
69 72 76 81 86 86 86 84 82 82 78 71 71 59 26 35 45 45 47 54 60 58 59 59 57 55 48 46 45 45 44 40 45 49 53 56 66 75 57 50 55 95 96
71 73 75 76 81 92 98 96 94 87 82 78 75 71 70 70 47 47 54 47 48 62 65 64 57 54 53 48 45 44 47 51 50 50 52 62 60 59 75 85 74 65 91
60 58 61 61 64 73 91 104 99 87 83 79 73 68 62 54 45 37 40 48 52 56 65 69 65 61 55 53 49 46 44 44 52 54 55 56 67 69 55 79 69 70 80
72 72 69 70 70 68 77 81 82 78 73 70 65 58 50 36 24 27 37 56 61 77 79 74 66 61 58 54 49 46 43 48 51 47 51 53 51 56 66 56 52 39 43
69 71 67 62 61 59 57 53 54 52 46 46 45 41 41 40 41 40 43 51 58 66 73 76 66 63 59 53 48 44 43 41 44 48 40 30 30 32 36 52 67 52 37
67 63 57 47 43 41 39 32 30 32 32 34 32 38 36 35 30 30 35 47 60 62 62 71 72 67 60 56 50 44 50 54 45 44 40 29 25 21 24 29 54 82 46
62 56 45 30 28 27 26 27 30 45 31 24 27 31 28 26 28 33 40 46 48 58 67 63 69 66 60 58 56 55 54 52 52 48 51 43 38 33 31 35 31 47 66
53 40 29 25 22 29 38 49 49 28 31 28 28 29 33 38 43 47 52 56 56 58 71 67 67 72 67 62 58 58 61 60 61 58 54 56 53 44 34 33 42 30 38
29 17 16 27 40 44 21 16 21 24 28 35 41 45 49 52 56 56 58 58 59 57 66 76 69 66 69 66 63 63 61 59 57 55 54 54 57 54 46 39 30 42 30
16 19 26 20 18 21 22 27 32 37 43 46 51 56 59 60 64 62 60 61 62 61 61 72 72 68 72 71 66 64 67 64 65 65 63 61 58 59 58 53 48 37 46
30 32 37 28 28 32 31 38 42 46 51 56 61 64 63 61 63 62 63 69 73 76 79 82 87 80 77 81 81 80 80 80 77 72 70 69 67 66 65 65 60 55 47
25 29 33 33 34 33 40 45 51 57 61 63 62 63 66 68 72 74 75 75 74 72 70 68 72 74 64 65 66 67 72 72 74 67 67 67 66 66 67 67 67 67 62
32 24 30 35 41 48 53 58 60 60 62 66 67 69 70 69 69 69 65 66 64 64 62 61 65 68 63 59 61 61 64 63 67 64 65 65 64 65 66 66 66 66 61
36 36 36 39 48 55 58 57 59 61 63 66 71 71 68 66 62 56 53 52 56 59 64 65 70 71 68 63 60 58 60 58 69 58 55 60 55 61 57 59 65 68 66
36 38 44 51 55 56 56 57 60 63 65 63 63 62 60 57 55 53 53 52 52 53 56 62 71 75 77 72 70 65 66 64 65 60 57 62 46 47 47 50 50 60 69
46 50 51 52 55 55 58 62 59 57 56 57 58 57 54 52 50 48 50 57 58 59 61 61 67 69 68 66 69 71 63 64 64 62 54 66 58 61 60 62 51 49 58
45 49 50 50 55 60 57 54 53 55 58 58 55 46 47 47 47 48 52 57 59 61 55 55 60 60 60 59 57 57 61 63 64 68 57 58 58 54 49 48 61 55 50
48 47 49 53 54 54 55 50 49 58 54 52 51 52 45 45 48 51 55 60 65 59 54 68 65 57 52 50 53 57 63 68 62 48 58 55 49 39 40 40 39 58 46
Wind_Direction_850mb
297 293 289 290 290 288 290 291 292 291 290 291 292 295 297 296 295 297 299 300 297 289 282 277 271 269 268 263 264 262 259 252 251 242 244 248 250 254 248 240 232 229 227
295 292 290 290 289 288 289 290 292 291 291 291 292 292 293 298 303 301 301 303 296 298 300 289 281 277 269 272 266 265 266 262 256 251 249 250 251 253 249 239 234 232 232
296 295 297 296 294 293 291 291 291 290 289 289 290 291 291 290 295 302 305 301 300 296 296 298 291 281 278 274 272 268 263 264 262 261 258 257 252 250 248 243 237 235 233
295 294 298 297 292 292 290 288 289 289 286 284 284 285 288 293 296 299 302 305 300 293 295 296 298 293 283 280 275 270 270 265 262 261 263 259 257 253 248 245 239 236 236
302 295 297 295 290 289 286 280 279 280 280 281 281 280 281 283 289 293 296 298 297 298 295 294 297 295 293 289 280 277 270 265 264 262 261 265 259 251 254 245 241 235 235
305 299 297 295 287 282 283 277 279 277 274 275 276 277 278 277 279 283 282 285 292 297 303 300 291 290 291 288 289 282 278 272 264 267 258 255 263 259 246 250 244 238 235
305 299 295 290 285 280 283 282 277 274 274 274 269 275 276 275 272 273 262 284 289 301 307 303 295 293 293 284 279 285 280 283 275 270 262 264 254 256 272 249 239 238 238
306 303 299 294 287 280 276 273 270 269 269 268 265 269 272 274 271 268 269 272 283 295 308 308 299 293 292 291 281 273 274 273 276 278 278 268 262 261 260 268 254 252 240
298 295 291 286 279 277 275 271 269 266 264 264 258 252 248 251 264 256 256 270 278 284 296 306 303 297 292 290 287 276 269 273 275 275 279 276 268 258 263 264 267 237 234
296 291 288 286 279 272 270 271 268 261 258 253 251 244 245 252 248 260 266 262 268 277 286 299 300 298 296 293 288 284 276 271 273 276 280 280 273 269 259 260 269 269 247
301 296 295 295 288 277 271 266 263 252 247 244 240 242 233 236 239 247 265 269 268 277 287 295 297 295 296 296 292 286 280 276 274 273 277 280 283 274 271 250 251 266 263
306 301 298 294 289 279 271 268 261 243 237 234 230 224 224 239 232 256 278 286 291 285 291 295 297 296 296 296 294 290 286 277 273 278 274 276 280 287 279 260 242 238 267
304 303 302 298 291 277 260 240 228 218 211 215 220 238 237 261 272 281 289 298 295 292 289 292 297 298 299 297 295 291 284 282 278 271 274 266 260 286 286 267 254 244 238
310 309 309 302 282 245 217 208 214 226 237 278 282 278 278 280 289 295 292 290 292 291 292 289 293 296 297 295 291 279 277 280 275 269 258 247 242 254 264 268 264 251 273
307 306 297 269 228 222 234 240 280 313 315 311 315 315 301 290 283 282 280 278 282 288 290 290 290 294 295 294 291 288 284 279 279 272 258 247 247 257 255 249 255 262 258
300 287 261 247 259 285 288 294 310 327 320 319 310 298 293 293 291 287 284 283 281 279 280 282 285 288 290 290 289 285 283 280 277 275 271 260 257 255 253 253 251 256 269
278 262 281 297 291 293 306 320 313 302 291 292 294 294 294 295 292 291 289 287 283 280 278 283 285 288 288 288 285 284 284 280 276 271 268 265 262 258 252 240 244 244 247
256 292 286 314 321 314 313 309 302 297 297 298 299 298 297 295 292 292 290 288 285 283 281 284 286 285 284 285 283 281 281 280 276 270 267 263 259 257 252 250 245 243 243
252 276 295 298 304 306 302 300 301 299 299 300 300 298 296 294 291 290 287 284 283 282 281 281 282 282 280 281 281 281 280 280 278 275 271 267 262 258 253 251 246 241 247
263 302 331 323 302 295 299 302 305 304 304 303 301 298 295 293 292 291 290 287 287 285 285 281 280 280 278 279 278 277 279 280 280 278 272 268 263 257 253 249 245 239 238
347 318 304 296 296 297 302 306 305 303 300 298 295 293 293 294 294 294 291 290 289 288 284 278 276 278 274 271 268 274 274 278 277 275 274 268 262 254 249 246 241 233 227
308 305 297 295 299 300 302 304 305 304 304 302 301 300 301 300 298 295 289 283 277 275 275 274 275 271 271 267 267 268 271 275 277 278 276 271 267 260 251 247 240 235 228
304 302 301 303 307 310 310 311 310 307 304 302 303 304 305 305 304 302 299 294 286 279 271 267 266 266 269 269 269 270 270 269 270 277 274 272 265 256 246 244 243 237 231
305 307 310 311 310 312 315 313 313 309 308 306 306 306 305 306 306 307 301 296 293 287 284 281 278 280 278 276 267 265 270 271 271 269 267 265 264 262 258 252 242 236 229
314 314 315 317 315 318 319 320 316 314 311 310 309 311 311 311 312 316 307 300 294 289 291 287 285 283 279 274 266 264 258 257 257 264 265 264 266 271 273 263 247 238 224
317 318 318 317 320 322 324 321 318 317 318 318 317 318 318 315 314 313 306 299 295 296 289 287 284 284 278 267 260 253 255 254 253 256 262 261 268 268 277 278 263 234 228